TimeEST,TemperatureF,Dew PointF,Humidity,Sea Level PressureIn,VisibilityMPH,Wind Direction,Wind SpeedMPH,Gust SpeedMPH,PrecipitationIn,Events,Conditions,WindDirDegrees,DateUTC
12:53 AM,39.9,26.1,58,30.06,10.0,WSW,9.2,-,0.00,Rain,Light Rain,250,2013-02-01 05:53:00
1:36 AM,39.2,30.2,70,30.05,9.0,West,12.7,20.7,0.00,Rain,Light Rain,270,2013-02-01 06:36:00
1:53 AM,36.0,28.9,76,30.10,9.0,West,8.1,21.9,0.00,Snow,Light Snow,260,2013-02-01 06:53:00
2:00 AM,35.6,28.4,75,30.08,9.0,West,6.9,16.1,0.00,,Overcast,270,2013-02-01 07:00:00
2:09 AM,35.6,30.2,81,30.09,8.0,Variable,5.8,17.3,0.00,Snow,Light Snow,0,2013-02-01 07:09:00
2:19 AM,35.6,30.2,81,30.09,9.0,Variable,5.8,-,0.00,Snow,Light Snow,0,2013-02-01 07:19:00
2:53 AM,34.0,27.0,75,30.16,8.0,West,6.9,-,0.00,Snow,Light Snow,260,2013-02-01 07:53:00
3:53 AM,30.0,15.1,54,30.21,10.0,Variable,4.6,17.3,0.00,,Mostly Cloudy,0,2013-02-01 08:53:00
4:53 AM,26.1,9.0,49,30.26,10.0,WNW,10.4,20.7,N/A,,Partly Cloudy,290,2013-02-01 09:53:00
5:53 AM,24.1,9.0,53,30.31,10.0,WNW,10.4,-,N/A,,Mostly Cloudy,290,2013-02-01 10:53:00
6:53 AM,21.0,7.0,55,30.37,10.0,NW,5.8,-,N/A,,Partly Cloudy,310,2013-02-01 11:53:00
7:53 AM,21.0,6.1,53,30.41,10.0,NW,3.5,-,N/A,,Scattered Clouds,310,2013-02-01 12:53:00
8:53 AM,21.0,8.1,57,30.44,10.0,Variable,4.6,-,N/A,,Mostly Cloudy,0,2013-02-01 13:53:00
9:53 AM,21.9,9.0,58,30.46,10.0,SSW,4.6,-,N/A,,Mostly Cloudy,210,2013-02-01 14:53:00
10:53 AM,25.0,10.0,53,30.48,10.0,Variable,4.6,-,N/A,,Overcast,0,2013-02-01 15:53:00
11:53 AM,26.1,8.1,47,30.48,10.0,Calm,Calm,-,N/A,,Scattered Clouds,0,2013-02-01 16:53:00
12:53 PM,28.0,8.1,43,30.45,10.0,Calm,Calm,-,N/A,,Partly Cloudy,0,2013-02-01 17:53:00
1:53 PM,30.0,10.0,43,30.44,10.0,SW,6.9,-,N/A,,Clear,220,2013-02-01 18:53:00
2:53 PM,30.0,8.1,40,30.43,10.0,South,3.5,-,N/A,,Clear,180,2013-02-01 19:53:00
3:53 PM,32.0,10.0,40,30.43,10.0,Variable,4.6,-,N/A,,Clear,0,2013-02-01 20:53:00
4:53 PM,30.0,6.1,36,30.43,10.0,West,6.9,-,N/A,,Clear,260,2013-02-01 21:53:00
5:53 PM,30.0,8.1,40,30.43,10.0,Variable,3.5,-,N/A,,Clear,0,2013-02-01 22:53:00
6:53 PM,28.0,9.0,45,30.45,10.0,Calm,Calm,-,N/A,,Clear,0,2013-02-01 23:53:00
7:53 PM,28.0,9.0,45,30.46,10.0,Variable,3.5,-,N/A,,Clear,0,2013-02-02 00:53:00
8:53 PM,27.0,10.0,49,30.45,10.0,Calm,Calm,-,N/A,,Clear,0,2013-02-02 01:53:00
9:53 PM,26.1,10.9,53,30.46,10.0,Calm,Calm,-,N/A,,Clear,0,2013-02-02 02:53:00
10:53 PM,26.1,12.9,58,30.45,10.0,Calm,Calm,-,N/A,,Clear,0,2013-02-02 03:53:00
11:53 PM,25.0,12.9,60,30.44,10.0,Calm,Calm,-,N/A,,Clear,0,2013-02-02 04:53:00